SNUSAT-1 (42733 NORAD) Tracking and Keplerian Element Data

This shows tracking and keplerian element data for the satellite.

Feedback or suggestion? Click here.




ElementValue
Catalog42733
NameSNUSAT-1
Epoch Orbit10324
Epoch Day73.81661424
Epoch Year2019
RAAN29.3648
Inclination51.6021
Eccentricity0.0005433
Argument of Perigee200.702
Mean Anonmoly239.9908
Mean Motion16.49371243
Decay Rate0.22721454
L11 42733U 98067MN 19073.81661424 .22721454 12576-4 28234-3 0 9995
L22 42733 51.6021 29.3648 0005433 200.7020 239.9908 16.49371243103244

Live tracking and technical data element details for SNUSAT-1 (NORAD 42733). SNUSAT-1 can be tracked NOW for your location showing map with azimuth and elevation plus other details from your city location.

Track the satellite on the map from your city or location and see movement details for azimuth, elevation, latitude, longitude, range, height, and movement on the map or in text.







IsCatalogInMostPopularTable: catalog: 42733, numindb: 212
Update: records affected: 1



GetName: 42733 SNUSAT-1

Hit Count: updated at: Sat, 23 Mar 2019 03:14:23 GMT